| time (UTC) | temp C | wind direction | speed KPH | gust KPH | rain 1hr cm | rain 24hr cm | rain mn cm | humidity % | barometer mb |
| 20260905173029 | 34 | 219 | 1.6 | 1.6 | 0.00 | 0.00 | 0.00 | 53 | 1015.8 |
| 20260905172527 | 34 | 205 | 3.2 | 4.8 | 0.00 | 0.00 | 0.00 | 53 | 1015.6 |
| 20260905172023 | 35 | 75 | 1.6 | 3.2 | 0.00 | 0.00 | 0.00 | 52 | 1015.9 |
| 20260905171519 | 35 | 182 | 1.6 | 1.6 | 0.00 | 0.00 | 0.00 | 50 | 1015.9 |
| 20260905171015 | 35 | 209 | 0.0 | 0.0 | 0.00 | 0.00 | 0.00 | 52 | 1015.8 |
| 20260905170512 | 35 | 164 | 1.6 | 1.6 | 0.00 | 0.00 | 0.00 | 53 | 1016.0 |
| 20260905170006 | 34 | 212 | 1.6 | 3.2 | 0.00 | 0.00 | 0.00 | 55 | 1015.9 |
| 20260905165501 | 34 | 171 | 1.6 | 3.2 | 0.00 | 0.00 | 0.00 | 54 | 1016.0 |
| 20260905164956 | 33 | 196 | 1.6 | 3.2 | 0.00 | 0.00 | 0.00 | 56 | 1016.0 |
| 20260905164455 | 34 | 173 | 4.8 | 4.8 | 0.00 | 0.00 | 0.00 | 56 | 1016.3 |
| 20260905163950 | 33 | 260 | 1.6 | 3.2 | 0.00 | 0.00 | 0.00 | 55 | 1016.1 |
| 20260905163447 | 33 | 214 | 8.0 | 9.7 | 0.00 | 0.00 | 0.00 | 57 | 1016.2 |
| 20260905162943 | 34 | 122 | 3.2 | 4.8 | 0.00 | 0.00 | 0.00 | 54 | 1016.1 |
| 20260905162438 | 34 | 279 | 0.0 | 0.0 | 0.00 | 0.00 | 0.00 | 55 | 1016.2 |
| 20260905161933 | 34 | 209 | 0.0 | 0.0 | 0.00 | 0.00 | 0.00 | 55 | 1016.3 |
| 20260905161432 | 33 | 125 | 1.6 | 1.6 | 0.00 | 0.00 | 0.00 | 56 | 1016.1 |
| 20260905160930 | 34 | 152 | 3.2 | 3.2 | 0.00 | 0.00 | 0.00 | 55 | 1016.3 |
| 20260905160425 | 33 | 230 | 1.6 | 1.6 | 0.00 | 0.00 | 0.00 | 59 | 1016.2 |
| 20260905155924 | 33 | 197 | 1.6 | 1.6 | 0.00 | 0.00 | 0.00 | 60 | 1016.0 |
| 20260905155418 | 33 | 210 | 1.6 | 1.6 | 0.00 | 0.00 | 0.00 | 60 | 1016.2 |
| 20260905154917 | 33 | 203 | 0.0 | 1.6 | 0.00 | 0.00 | 0.00 | 60 | 1016.2 |
| 20260905154413 | 32 | 356 | 1.6 | 3.2 | 0.00 | 0.00 | 0.00 | 62 | 1016.1 |
| 20260905153908 | 32 | 195 | 0.0 | 0.0 | 0.00 | 0.00 | 0.00 | 62 | 1016.0 |
| 20260905153405 | 32 | 288 | 3.2 | 3.2 | 0.00 | 0.00 | 0.00 | 62 | 1016.2 |
| 20260905152904 | 32 | 240 | 1.6 | 1.6 | 0.00 | 0.00 | 0.00 | 62 | 1016.1 |
| 20260905152403 | 32 | 164 | 4.8 | 8.0 | 0.00 | 0.00 | 0.00 | 63 | 1016.1 |
| 20260905151859 | 32 | 183 | 3.2 | 3.2 | 0.00 | 0.00 | 0.00 | 63 | 1016.1 |
| 20260905151354 | 32 | 197 | 4.8 | 4.8 | 0.00 | 0.00 | 0.00 | 64 | 1016.0 |
| 20260905150848 | 32 | 266 | 11.3 | 12.9 | 0.00 | 0.00 | 0.00 | 64 | 1015.9 |
| 20260905150343 | 32 | 197 | 0.0 | 1.6 | 0.00 | 0.00 | 0.00 | 65 | 1015.7 |
| 20260905145841 | 31 | 191 | 1.6 | 3.2 | 0.00 | 0.00 | 0.00 | 66 | 1015.8 |
| 20260905145340 | 31 | 203 | 0.0 | 1.6 | 0.00 | 0.00 | 0.00 | 67 | 1015.8 |
| 20260905144839 | 31 | 220 | 1.6 | 1.6 | 0.00 | 0.00 | 0.00 | 67 | 1015.8 |
| 20260905144335 | 31 | 188 | 0.0 | 1.6 | 0.00 | 0.00 | 0.00 | 68 | 1015.7 |
| 20260905143833 | 31 | 177 | 1.6 | 1.6 | 0.00 | 0.00 | 0.00 | 67 | 1015.8 |
| 20260905143328 | 31 | 190 | 0.0 | 1.6 | 0.00 | 0.00 | 0.00 | 68 | 1015.7 |
| 20260905142827 | 30 | 206 | 0.0 | 0.0 | 0.00 | 0.00 | 0.00 | 69 | 1016.0 |
| 20260905142321 | 30 | 223 | 0.0 | 0.0 | 0.00 | 0.00 | 0.00 | 69 | 1015.8 |
| 20260905141818 | 30 | 213 | 0.0 | 0.0 | 0.00 | 0.00 | 0.00 | 70 | 1016.2 |
| 20260905141313 | 30 | 203 | 1.6 | 1.6 | 0.00 | 0.00 | 0.00 | 70 | 1016.0 |
| 20260905140809 | 30 | 199 | 0.0 | 1.6 | 0.00 | 0.00 | 0.00 | 71 | 1016.0 |
| 20260905140308 | 29 | 224 | 1.6 | 1.6 | 0.00 | 0.00 | 0.00 | 71 | 1015.9 |
| 20260905135807 | 29 | 209 | 0.0 | 1.6 | 0.00 | 0.00 | 0.00 | 73 | 1015.7 |
| 20260905135306 | 29 | 165 | 0.0 | 1.6 | 0.00 | 0.00 | 0.00 | 73 | 1015.8 |
| 20260905134803 | 28 | 239 | 1.6 | 1.6 | 0.00 | 0.00 | 0.00 | 74 | 1015.9 |
| 20260905134257 | 28 | 198 | 0.0 | 1.6 | 0.00 | 0.00 | 0.00 | 76 | 1015.9 |
| 20260905133751 | 27 | 200 | 0.0 | 0.0 | 0.00 | 0.00 | 0.00 | 77 | 1015.7 |
| 20260905133247 | 27 | 193 | 0.0 | 0.0 | 0.00 | 0.00 | 0.00 | 77 | 1015.8 |
| 20260905132745 | 27 | 193 | 1.6 | 1.6 | 0.00 | 0.00 | 0.00 | 78 | 1015.9 |
| 20260905132241 | 27 | 201 | 0.0 | 0.0 | 0.00 | 0.00 | 0.00 | 78 | 1015.8 |
| 20260905131735 | 27 | 195 | 0.0 | 0.0 | 0.00 | 0.00 | 0.00 | 78 | 1015.6 |
| 20260905131231 | 27 | 224 | 0.0 | 0.0 | 0.00 | 0.00 | 0.00 | 78 | 1015.6 |
| 20260905130726 | 27 | 206 | 0.0 | 0.0 | 0.00 | 0.00 | 0.00 | 79 | 1015.7 |
| 20260905130225 | 26 | 195 | 0.0 | 0.0 | 0.00 | 0.00 | 0.00 | 79 | 1015.5 |
| 20260905125720 | 26 | 173 | 0.0 | 1.6 | 0.00 | 0.00 | 0.00 | 80 | 1015.4 |
| 20260905125215 | 26 | 203 | 0.0 | 0.0 | 0.00 | 0.00 | 0.00 | 80 | 1015.6 |
| 20260905124712 | 26 | 200 | 0.0 | 1.6 | 0.00 | 0.00 | 0.00 | 80 | 1015.3 |
| 20260905124208 | 26 | 198 | 0.0 | 1.6 | 0.00 | 0.00 | 0.00 | 80 | 1015.1 |
| 20260905123702 | 26 | 203 | 1.6 | 1.6 | 0.00 | 0.00 | 0.00 | 81 | 1014.9 |
| 20260905123159 | 26 | 192 | 1.6 | 3.2 | 0.00 | 0.00 | 0.00 | 81 | 1015.0 |
| 20260905122659 | 26 | 200 | 0.0 | 0.0 | 0.00 | 0.00 | 0.00 | 81 | 1014.8 |
| 20260905122154 | 26 | 201 | 0.0 | 0.0 | 0.00 | 0.00 | 0.00 | 81 | 1015.1 |
| 20260905121648 | 26 | 199 | 0.0 | 0.0 | 0.00 | 0.00 | 0.00 | 82 | 1015.4 |
| 20260905121144 | 25 | 198 | 0.0 | 0.0 | 0.00 | 0.00 | 0.00 | 82 | 1015.4 |
| 20260905120643 | 25 | 203 | 0.0 | 0.0 | 0.00 | 0.00 | 0.00 | 82 | 1015.2 |
| 20260905120138 | 25 | 203 | 0.0 | 0.0 | 0.00 | 0.00 | 0.00 | 82 | 1015.2 |
| 20260905115638 | 25 | 205 | 0.0 | 0.0 | 0.00 | 0.00 | 0.00 | 83 | 1015.1 |
| 20260905115133 | 25 | 203 | 0.0 | 0.0 | 0.00 | 0.00 | 0.00 | 83 | 1015.2 |
| 20260905114632 | 25 | 209 | 0.0 | 0.0 | 0.00 | 0.00 | 0.00 | 83 | 1015.2 |
| 20260905114131 | 25 | 209 | 0.0 | 0.0 | 0.00 | 0.00 | 0.00 | 83 | 1015.2 |
| 20260905113626 | 25 | 211 | 0.0 | 0.0 | 0.00 | 0.00 | 0.00 | 83 | 1015.1 |
| 20260905113121 | 25 | 214 | 0.0 | 0.0 | 0.00 | 0.00 | 0.00 | 83 | 1015.2 |
| 20260905112618 | 25 | 215 | 0.0 | 0.0 | 0.00 | 0.00 | 0.00 | 83 | 1015.3 |
| 20260905112112 | 25 | 216 | 0.0 | 0.0 | 0.00 | 0.00 | 0.00 | 82 | 1015.2 |
| 20260905111606 | 25 | 216 | 0.0 | 0.0 | 0.00 | 0.00 | 0.00 | 82 | 1015.4 |
| 20260905111105 | 25 | 215 | 0.0 | 0.0 | 0.00 | 0.00 | 0.00 | 82 | 1015.2 |
| 20260905110604 | 25 | 210 | 0.0 | 0.0 | 0.00 | 0.00 | 0.00 | 82 | 1015.1 |
| 20260905110100 | 25 | 210 | 0.0 | 0.0 | 0.00 | 0.00 | 0.00 | 82 | 1015.1 |
| 20260905105554 | 25 | 209 | 0.0 | 0.0 | 0.00 | 0.00 | 0.00 | 81 | 1015.0 |
| 20260905105053 | 26 | 209 | 0.0 | 0.0 | 0.00 | 0.00 | 0.00 | 81 | 1015.0 |
| 20260905104549 | 26 | 209 | 0.0 | 0.0 | 0.00 | 0.00 | 0.00 | 80 | 1014.9 |
| 20260905104043 | 26 | 209 | 0.0 | 0.0 | 0.00 | 0.00 | 0.00 | 80 | 1014.9 |
| 20260905103539 | 26 | 209 | 0.0 | 0.0 | 0.00 | 0.00 | 0.00 | 79 | 1015.0 |
| 20260905103035 | 26 | 209 | 0.0 | 0.0 | 0.00 | 0.00 | 0.00 | 78 | 1015.1 |
| 20260905102530 | 26 | 208 | 0.0 | 0.0 | 0.00 | 0.00 | 0.00 | 78 | 1015.2 |
| 20260905102027 | 26 | 209 | 0.0 | 0.0 | 0.00 | 0.00 | 0.00 | 77 | 1014.9 |
| 20260905101525 | 26 | 206 | 0.0 | 0.0 | 0.00 | 0.00 | 0.00 | 76 | 1014.9 |
| 20260905101023 | 27 | 209 | 0.0 | 0.0 | 0.00 | 0.00 | 0.00 | 76 | 1014.9 |
| 20260905100520 | 27 | 194 | 0.0 | 0.0 | 0.00 | 0.00 | 0.00 | 76 | 1015.0 |
| 20260905100014 | 27 | 200 | 0.0 | 0.0 | 0.00 | 0.00 | 0.00 | 76 | 1015.1 |
| 20260905095508 | 27 | 200 | 0.0 | 0.0 | 0.00 | 0.00 | 0.00 | 76 | 1014.7 |
| 20260905095003 | 27 | 211 | 0.0 | 0.0 | 0.00 | 0.00 | 0.00 | 75 | 1014.9 |
| 20260905094458 | 27 | 208 | 0.0 | 0.0 | 0.00 | 0.00 | 0.00 | 75 | 1014.8 |
| 20260905093957 | 27 | 198 | 0.0 | 0.0 | 0.00 | 0.00 | 0.00 | 74 | 1014.8 |
| 20260905093452 | 27 | 204 | 0.0 | 0.0 | 0.00 | 0.00 | 0.00 | 74 | 1014.8 |
| 20260905092948 | 27 | 186 | 1.6 | 1.6 | 0.00 | 0.00 | 0.00 | 74 | 1014.7 |
| 20260905092444 | 27 | 205 | 0.0 | 0.0 | 0.00 | 0.00 | 0.00 | 74 | 1014.7 |
| 20260905091939 | 27 | 192 | 1.6 | 1.6 | 0.00 | 0.00 | 0.00 | 74 | 1014.7 |
| 20260905091439 | 27 | 200 | 1.6 | 3.2 | 0.00 | 0.00 | 0.00 | 74 | 1014.7 |
| 20260905090938 | 27 | 190 | 0.0 | 1.6 | 0.00 | 0.00 | 0.00 | 74 | 1014.6 |
| 20260905090434 | 27 | 184 | 1.6 | 1.6 | 0.00 | 0.00 | 0.00 | 73 | 1014.7 |
| 20260905085932 | 27 | 203 | 1.6 | 1.6 | 0.00 | 0.00 | 0.00 | 73 | 1014.7 |
| 20260905085426 | 28 | 199 | 0.0 | 0.0 | 0.00 | 0.00 | 0.00 | 73 | 1014.7 |
| 20260905084922 | 28 | 167 | 4.8 | 4.8 | 0.00 | 0.00 | 0.00 | 72 | 1014.3 |
| 20260905084421 | 28 | 186 | 0.0 | 1.6 | 0.00 | 0.00 | 0.00 | 72 | 1014.5 |
| 20260905083916 | 27 | 166 | 3.2 | 4.8 | 0.00 | 0.00 | 0.00 | 72 | 1014.3 |
| 20260905083412 | 27 | 210 | 0.0 | 0.0 | 0.00 | 0.00 | 0.00 | 73 | 1014.3 |
| 20260905082908 | 28 | 215 | 0.0 | 0.0 | 0.00 | 0.00 | 0.00 | 72 | 1014.0 |
| 20260905082403 | 28 | 211 | 0.0 | 0.0 | 0.00 | 0.00 | 0.00 | 72 | 1014.3 |
| 20260905081858 | 28 | 207 | 0.0 | 1.6 | 0.00 | 0.00 | 0.00 | 72 | 1014.3 |
| 20260905081353 | 28 | 205 | 0.0 | 0.0 | 0.00 | 0.00 | 0.00 | 72 | 1014.5 |
| 20260905080852 | 28 | 204 | 0.0 | 0.0 | 0.00 | 0.00 | 0.00 | 72 | 1014.3 |
| 20260905080347 | 28 | 204 | 0.0 | 0.0 | 0.00 | 0.00 | 0.00 | 72 | 1014.3 |
| 20260905075846 | 28 | 190 | 3.2 | 3.2 | 0.00 | 0.00 | 0.00 | 71 | 1014.4 |
| 20260905075345 | 28 | 205 | 1.6 | 1.6 | 0.00 | 0.00 | 0.00 | 71 | 1014.1 |
| 20260905074844 | 28 | 206 | 0.0 | 0.0 | 0.00 | 0.00 | 0.00 | 71 | 1014.5 |
| 20260905074341 | 28 | 208 | 1.6 | 1.6 | 0.00 | 0.00 | 0.00 | 70 | 1014.3 |
| 20260905073836 | 28 | 209 | 3.2 | 3.2 | 0.00 | 0.00 | 0.00 | 70 | 1014.4 |
| 20260905073331 | 28 | 177 | 4.8 | 4.8 | 0.00 | 0.00 | 0.00 | 70 | 1014.6 |
| 20260905072826 | 28 | 205 | 1.6 | 3.2 | 0.00 | 0.00 | 0.00 | 71 | 1014.6 |
| 20260905072321 | 28 | 181 | 1.6 | 1.6 | 0.00 | 0.00 | 0.00 | 71 | 1014.4 |
| 20260905071817 | 28 | 172 | 3.2 | 4.8 | 0.00 | 0.00 | 0.00 | 71 | 1014.8 |
| 20260905071313 | 28 | 193 | 0.0 | 0.0 | 0.00 | 0.00 | 0.00 | 70 | 1014.7 |
| 20260905070808 | 29 | 168 | 4.8 | 4.8 | 0.00 | 0.00 | 0.00 | 70 | 1014.8 |
| 20260905070304 | 29 | 181 | 4.8 | 8.0 | 0.00 | 0.00 | 0.00 | 70 | 1014.8 |
| 20260905065803 | 29 | 184 | 4.8 | 8.0 | 0.00 | 0.00 | 0.00 | 70 | 1014.9 |
| 20260905065306 | 29 | 202 | 1.6 | 3.2 | 0.00 | 0.00 | 0.00 | 70 | 1014.8 |
| 20260905064757 | 29 | 208 | 0.0 | 0.0 | 0.00 | 0.00 | 0.00 | 70 | 1015.0 |
| 20260905064253 | 29 | 194 | 1.6 | 1.6 | 0.00 | 0.00 | 0.00 | 69 | 1014.9 |
| 20260905063751 | 29 | 206 | 0.0 | 1.6 | 0.00 | 0.00 | 0.00 | 69 | 1014.7 |
| 20260905063247 | 29 | 198 | 1.6 | 3.2 | 0.00 | 0.00 | 0.00 | 69 | 1015.0 |
| 20260905062738 | 29 | 202 | 0.0 | 1.6 | 0.00 | 0.00 | 0.00 | 69 | 1015.1 |
| 20260905062238 | 29 | 189 | 3.2 | 3.2 | 0.00 | 0.00 | 0.00 | 69 | 1014.9 |
| 20260905061737 | 29 | 181 | 1.6 | 3.2 | 0.00 | 0.00 | 0.00 | 68 | 1014.9 |
| 20260905061232 | 30 | 203 | 0.0 | 1.6 | 0.00 | 0.00 | 0.00 | 68 | 1014.8 |
| 20260905060726 | 30 | 193 | 1.6 | 3.2 | 0.00 | 0.00 | 0.00 | 68 | 1014.8 |
| 20260905060224 | 30 | 194 | 1.6 | 3.2 | 0.00 | 0.00 | 0.00 | 68 | 1014.9 |
| 20260905055722 | 30 | 205 | 0.0 | 0.0 | 0.00 | 0.00 | 0.00 | 67 | 1014.9 |
| 20260905055217 | 30 | 198 | 3.2 | 3.2 | 0.00 | 0.00 | 0.00 | 67 | 1014.7 |
| 20260905054712 | 30 | 184 | 4.8 | 4.8 | 0.00 | 0.00 | 0.00 | 66 | 1014.8 |
| 20260905054209 | 30 | 194 | 1.6 | 1.6 | 0.00 | 0.00 | 0.00 | 66 | 1014.9 |
| 20260905053708 | 30 | 170 | 1.6 | 4.8 | 0.00 | 0.00 | 0.00 | 66 | 1014.5 |
| 20260905053203 | 30 | 180 | 4.8 | 4.8 | 0.00 | 0.00 | 0.00 | 66 | 1014.4 |
| 20260905052703 | 30 | 169 | 4.8 | 4.8 | 0.00 | 0.00 | 0.00 | 66 | 1014.6 |
| 20260905052157 | 30 | 197 | 3.2 | 8.0 | 0.00 | 0.00 | 0.00 | 65 | 1014.4 |
| 20260905051652 | 30 | 186 | 1.6 | 3.2 | 0.00 | 0.00 | 0.00 | 65 | 1014.3 |
| 20260905051149 | 30 | 200 | 4.8 | 4.8 | 0.00 | 0.00 | 0.00 | 65 | 1014.3 |
| 20260905050645 | 30 | 191 | 1.6 | 3.2 | 0.00 | 0.00 | 0.00 | 64 | 1014.5 |
| 20260905050141 | 30 | 195 | 1.6 | 3.2 | 0.00 | 0.00 | 0.00 | 64 | 1014.4 |
| 20260905045641 | 30 | 152 | 9.7 | 12.9 | 0.00 | 0.00 | 0.00 | 64 | 1014.3 |
| 20260905045137 | 30 | 200 | 4.8 | 4.8 | 0.00 | 0.00 | 0.00 | 64 | 1014.6 |
| 20260905044637 | 30 | 173 | 4.8 | 4.8 | 0.00 | 0.00 | 0.00 | 63 | 1014.5 |
| 20260905044131 | 31 | 208 | 1.6 | 3.2 | 0.00 | 0.00 | 0.00 | 63 | 1014.4 |
| 20260905043630 | 31 | 185 | 3.2 | 3.2 | 0.00 | 0.00 | 0.00 | 63 | 1014.5 |
| 20260905043126 | 31 | 253 | 1.6 | 3.2 | 0.00 | 0.00 | 0.00 | 63 | 1014.4 |
| 20260905042624 | 31 | 179 | 4.8 | 9.7 | 0.00 | 0.00 | 0.00 | 63 | 1014.5 |
| 20260905042120 | 31 | 189 | 4.8 | 4.8 | 0.00 | 0.00 | 0.00 | 62 | 1014.5 |
| 20260905041615 | 31 | 164 | 9.7 | 12.9 | 0.00 | 0.00 | 0.00 | 62 | 1014.5 |
| 20260905041110 | 31 | 191 | 3.2 | 3.2 | 0.00 | 0.00 | 0.00 | 62 | 1014.4 |
| 20260905040611 | 31 | 178 | 4.8 | 4.8 | 0.00 | 0.00 | 0.00 | 62 | 1014.4 |
| 20260905040109 | 31 | 176 | 6.4 | 9.7 | 0.00 | 0.00 | 0.00 | 61 | 1014.5 |
| 20260905035605 | 31 | 214 | 1.6 | 1.6 | 0.00 | 0.00 | 0.00 | 61 | 1014.6 |
| 20260905035101 | 31 | 197 | 1.6 | 1.6 | 0.00 | 0.00 | 0.00 | 60 | 1014.5 |
| 20260905034557 | 31 | 158 | 4.8 | 4.8 | 0.00 | 0.00 | 0.00 | 60 | 1014.3 |
| 20260905034057 | 31 | 186 | 3.2 | 3.2 | 0.00 | 0.00 | 0.00 | 60 | 1014.7 |
| 20260905033556 | 31 | 198 | 1.6 | 1.6 | 0.00 | 0.00 | 0.00 | 59 | 1014.4 |
| 20260905033052 | 31 | 194 | 0.0 | 1.6 | 0.00 | 0.00 | 0.00 | 59 | 1014.6 |
| 20260905032552 | 31 | 182 | 3.2 | 3.2 | 0.00 | 0.00 | 0.00 | 59 | 1014.3 |
| 20260905032047 | 31 | 198 | 3.2 | 3.2 | 0.00 | 0.00 | 0.00 | 59 | 1014.5 |
| 20260905031543 | 31 | 201 | 0.0 | 0.0 | 0.00 | 0.00 | 0.00 | 59 | 1014.6 |
| 20260905031043 | 31 | 202 | 0.0 | 0.0 | 0.00 | 0.00 | 0.00 | 58 | 1014.5 |
| 20260905030538 | 31 | 195 | 1.6 | 1.6 | 0.00 | 0.00 | 0.00 | 58 | 1014.1 |
| 20260905030038 | 31 | 197 | 0.0 | 1.6 | 0.00 | 0.00 | 0.00 | 58 | 1014.3 |
| 20260905025533 | 31 | 180 | 1.6 | 1.6 | 0.00 | 0.00 | 0.00 | 58 | 1014.3 |
| 20260905025029 | 31 | 201 | 0.0 | 0.0 | 0.00 | 0.00 | 0.00 | 58 | 1014.1 |
| 20260905024524 | 31 | 207 | 0.0 | 0.0 | 0.00 | 0.00 | 0.00 | 58 | 1014.0 |
| 20260905024019 | 31 | 205 | 0.0 | 0.0 | 0.00 | 0.00 | 0.00 | 58 | 1014.4 |
| 20260905023514 | 31 | 200 | 0.0 | 0.0 | 0.00 | 0.00 | 0.00 | 58 | 1014.0 |
| 20260905023009 | 32 | 196 | 0.0 | 0.0 | 0.00 | 0.00 | 0.00 | 57 | 1013.9 |
| 20260905022503 | 32 | 174 | 1.6 | 1.6 | 0.00 | 0.00 | 0.00 | 57 | 1014.0 |
| 20260905021959 | 32 | 189 | 0.0 | 1.6 | 0.00 | 0.00 | 0.00 | 56 | 1013.8 |
| 20260905021458 | 32 | 207 | 0.0 | 1.6 | 0.00 | 0.00 | 0.00 | 56 | 1013.7 |
| 20260905020954 | 32 | 196 | 1.6 | 1.6 | 0.00 | 0.00 | 0.00 | 56 | 1013.5 |
| 20260905020454 | 32 | 201 | 0.0 | 0.0 | 0.00 | 0.00 | 0.00 | 55 | 1013.4 |
| 20260905015953 | 32 | 162 | 0.0 | 1.6 | 0.00 | 0.00 | 0.00 | 55 | 1013.4 |
| 20260905015452 | 32 | 200 | 1.6 | 3.2 | 0.00 | 0.00 | 0.00 | 55 | 1013.2 |
| 20260905014951 | 32 | 203 | 1.6 | 1.6 | 0.00 | 0.00 | 0.00 | 54 | 1013.1 |
| 20260905014446 | 32 | 200 | 0.0 | 1.6 | 0.00 | 0.00 | 0.00 | 54 | 1013.1 |
| 20260905013942 | 32 | 182 | 0.0 | 1.6 | 0.00 | 0.00 | 0.00 | 54 | 1013.1 |
| 20260905013439 | 32 | 196 | 0.0 | 0.0 | 0.00 | 0.00 | 0.00 | 54 | 1013.1 |
| 20260905012933 | 32 | 211 | 3.2 | 4.8 | 0.00 | 0.00 | 0.00 | 54 | 1013.2 |
| 20260905012428 | 33 | 185 | 3.2 | 4.8 | 0.00 | 0.00 | 0.00 | 54 | 1012.9 |
| 20260905011925 | 33 | 197 | 1.6 | 1.6 | 0.00 | 0.00 | 0.00 | 54 | 1013.1 |
| 20260905011420 | 33 | 195 | 1.6 | 1.6 | 0.00 | 0.00 | 0.00 | 53 | 1012.9 |
| 20260905010916 | 33 | 159 | 1.6 | 3.2 | 0.00 | 0.00 | 0.00 | 52 | 1012.9 |
| 20260905010411 | 33 | 204 | 3.2 | 4.8 | 0.00 | 0.00 | 0.00 | 52 | 1012.9 |
| 20260905005907 | 33 | 144 | 3.2 | 4.8 | 0.00 | 0.00 | 0.00 | 51 | 1012.9 |
| 20260905005403 | 33 | 113 | 4.8 | 8.0 | 0.00 | 0.00 | 0.00 | 50 | 1012.6 |
| 20260905004857 | 33 | 170 | 1.6 | 1.6 | 0.00 | 0.00 | 0.00 | 50 | 1012.8 |
| 20260905004352 | 33 | 174 | 1.6 | 3.2 | 0.00 | 0.00 | 0.00 | 50 | 1012.7 |
| 20260905003847 | 34 | 204 | 4.8 | 4.8 | 0.00 | 0.00 | 0.00 | 50 | 1012.8 |
| 20260905003343 | 34 | 189 | 1.6 | 1.6 | 0.00 | 0.00 | 0.00 | 50 | 1012.6 |
| 20260905002838 | 34 | 114 | 3.2 | 3.2 | 0.00 | 0.00 | 0.00 | 49 | 1012.5 |
| 20260905002338 | 34 | 116 | 3.2 | 3.2 | 0.00 | 0.00 | 0.00 | 49 | 1012.6 |
| 20260905001833 | 34 | 141 | 4.8 | 4.8 | 0.00 | 0.00 | 0.00 | 49 | 1012.4 |
| 20260905001333 | 35 | 146 | 4.8 | 4.8 | 0.00 | 0.00 | 0.00 | 48 | 1012.5 |
| 20260905000828 | 35 | 146 | 3.2 | 4.8 | 0.00 | 0.00 | 0.00 | 48 | 1012.3 |
| 20260905000325 | 35 | 105 | 1.6 | 3.2 | 0.00 | 0.00 | 0.00 | 48 | 1012.5 |
| 20260904235819 | 35 | 188 | 1.6 | 1.6 | 0.00 | 0.00 | 0.00 | 48 | 1012.4 |
| 20260904235314 | 35 | 164 | 1.6 | 1.6 | 0.00 | 0.00 | 0.00 | 48 | 1012.6 |
| 20260904234808 | 35 | 181 | 3.2 | 4.8 | 0.00 | 0.00 | 0.00 | 48 | 1012.6 |
| 20260904234303 | 35 | 180 | 1.6 | 3.2 | 0.00 | 0.00 | 0.00 | 47 | 1012.3 |
| 20260904233759 | 35 | 94 | 4.8 | 8.0 | 0.00 | 0.00 | 0.00 | 47 | 1012.4 |
| 20260904233256 | 35 | 100 | 1.6 | 3.2 | 0.00 | 0.00 | 0.00 | 47 | 1012.4 |
| 20260904232752 | 35 | 205 | 1.6 | 3.2 | 0.00 | 0.00 | 0.00 | 48 | 1012.4 |
| 20260904232248 | 35 | 146 | 1.6 | 1.6 | 0.00 | 0.00 | 0.00 | 48 | 1012.2 |
| 20260904231743 | 35 | 153 | 3.2 | 3.2 | 0.00 | 0.00 | 0.00 | 48 | 1012.4 |
| 20260904231238 | 36 | 182 | 1.6 | 1.6 | 0.00 | 0.00 | 0.00 | 47 | 1012.3 |
| 20260904230739 | 36 | 211 | 1.6 | 3.2 | 0.00 | 0.00 | 0.00 | 47 | 1012.4 |
| 20260904230233 | 36 | 195 | 1.6 | 3.2 | 0.00 | 0.00 | 0.00 | 47 | 1012.3 |
| 20260904225733 | 36 | 118 | 0.0 | 1.6 | 0.00 | 0.00 | 0.00 | 47 | 1012.4 |
| 20260904225226 | 36 | 200 | 3.2 | 3.2 | 0.00 | 0.00 | 0.00 | 47 | 1012.5 |
| 20260904224725 | 36 | 115 | 3.2 | 4.8 | 0.00 | 0.00 | 0.00 | 47 | 1012.5 |
| 20260904224221 | 36 | 136 | 4.8 | 4.8 | 0.00 | 0.00 | 0.00 | 48 | 1012.7 |
| 20260904223720 | 35 | 154 | 4.8 | 4.8 | 0.00 | 0.00 | 0.00 | 49 | 1012.6 |
| 20260904223215 | 35 | 203 | 1.6 | 1.6 | 0.00 | 0.00 | 0.00 | 49 | 1012.5 |
| 20260904222711 | 35 | 109 | 1.6 | 3.2 | 0.00 | 0.00 | 0.00 | 49 | 1012.6 |
| 20260904222207 | 35 | 110 | 4.8 | 8.0 | 0.00 | 0.00 | 0.00 | 49 | 1012.6 |
| 20260904221706 | 36 | 160 | 3.2 | 4.8 | 0.00 | 0.00 | 0.00 | 48 | 1012.6 |
| 20260904221201 | 36 | 161 | 4.8 | 8.0 | 0.00 | 0.00 | 0.00 | 47 | 1012.6 |
| 20260904220655 | 36 | 106 | 1.6 | 4.8 | 0.00 | 0.00 | 0.00 | 49 | 1012.5 |
| 20260904220151 | 36 | 158 | 1.6 | 3.2 | 0.00 | 0.00 | 0.00 | 48 | 1012.6 |
| 20260904215650 | 37 | 84 | 9.7 | 17.7 | 0.00 | 0.00 | 0.00 | 46 | 1012.8 |
| 20260904215146 | 36 | 164 | 3.2 | 3.2 | 0.00 | 0.00 | 0.00 | 48 | 1012.6 |
| 20260904214641 | 36 | 49 | 1.6 | 1.6 | 0.00 | 0.00 | 0.00 | 48 | 1012.9 |
| 20260904214137 | 36 | 123 | 3.2 | 3.2 | 0.00 | 0.00 | 0.00 | 47 | 1012.7 |
| 20260904213635 | 36 | 150 | 0.0 | 1.6 | 0.00 | 0.00 | 0.00 | 48 | 1012.9 |
| 20260904213132 | 37 | 90 | 4.8 | 8.0 | 0.00 | 0.00 | 0.00 | 47 | 1012.9 |
| 20260904212632 | 37 | 148 | 1.6 | 3.2 | 0.00 | 0.00 | 0.00 | 46 | 1012.8 |
| 20260904212127 | 36 | 187 | 1.6 | 3.2 | 0.00 | 0.00 | 0.00 | 45 | 1012.9 |
| 20260904211626 | 36 | 66 | 4.8 | 9.7 | 0.00 | 0.00 | 0.00 | 45 | 1013.0 |
| 20260904211122 | 37 | 125 | 1.6 | 3.2 | 0.00 | 0.00 | 0.00 | 44 | 1013.0 |
| 20260904210621 | 37 | 152 | 3.2 | 3.2 | 0.00 | 0.00 | 0.00 | 45 | 1013.0 |
| 20260904210117 | 36 | 218 | 3.2 | 3.2 | 0.00 | 0.00 | 0.00 | 45 | 1013.1 |
| 20260904205613 | 36 | 164 | 1.6 | 3.2 | 0.00 | 0.00 | 0.00 | 46 | 1013.1 |
| 20260904205109 | 36 | 214 | 3.2 | 4.8 | 0.00 | 0.00 | 0.00 | 48 | 1013.1 |
| 20260904204604 | 36 | 162 | 6.4 | 9.7 | 0.00 | 0.00 | 0.00 | 47 | 1013.2 |
| 20260904204101 | 36 | 125 | 6.4 | 8.0 | 0.00 | 0.00 | 0.00 | 45 | 1013.3 |
| 20260904203556 | 36 | 193 | 9.7 | 11.3 | 0.00 | 0.00 | 0.00 | 47 | 1013.3 |
| 20260904203053 | 36 | 198 | 3.2 | 3.2 | 0.00 | 0.00 | 0.00 | 47 | 1013.6 |
| 20260904202548 | 37 | 52 | 0.0 | 1.6 | 0.00 | 0.00 | 0.00 | 45 | 1013.4 |
| 20260904202044 | 36 | 92 | 3.2 | 4.8 | 0.00 | 0.00 | 0.00 | 46 | 1013.6 |
| 20260904201539 | 37 | 123 | 4.8 | 4.8 | 0.00 | 0.00 | 0.00 | 46 | 1013.5 |
| 20260904201034 | 36 | 123 | 4.8 | 4.8 | 0.00 | 0.00 | 0.00 | 46 | 1013.9 |
| 20260904200532 | 37 | 169 | 6.4 | 9.7 | 0.00 | 0.00 | 0.00 | 46 | 1013.8 |
| 20260904200028 | 36 | 156 | 3.2 | 4.8 | 0.00 | 0.00 | 0.00 | 47 | 1013.7 |
| 20260904195526 | 37 | 126 | 4.8 | 9.7 | 0.00 | 0.00 | 0.00 | 46 | 1013.9 |
| 20260904195026 | 37 | 201 | 4.8 | 4.8 | 0.00 | 0.00 | 0.00 | 46 | 1013.7 |
| 20260904194521 | 36 | 209 | 3.2 | 4.8 | 0.00 | 0.00 | 0.00 | 48 | 1013.7 |
| 20260904194015 | 36 | 150 | 1.6 | 3.2 | 0.00 | 0.00 | 0.00 | 47 | 1014.3 |
| 20260904193510 | 37 | 125 | 4.8 | 8.0 | 0.00 | 0.00 | 0.00 | 47 | 1014.5 |
| 20260904193007 | 36 | 135 | 1.6 | 1.6 | 0.00 | 0.00 | 0.00 | 47 | 1014.3 |
| 20260904192506 | 36 | 193 | 6.4 | 9.7 | 0.00 | 0.00 | 0.00 | 48 | 1014.4 |
| 20260904192003 | 36 | 186 | 4.8 | 8.0 | 0.00 | 0.00 | 0.00 | 48 | 1014.4 |
| 20260904191459 | 35 | 204 | 4.8 | 9.7 | 0.00 | 0.00 | 0.00 | 49 | 1014.3 |
| 20260904190955 | 37 | 165 | 8.0 | 11.3 | 0.00 | 0.00 | 0.00 | 48 | 1014.6 |
| 20260904190450 | 36 | 103 | 3.2 | 8.0 | 0.00 | 0.00 | 0.00 | 49 | 1014.7 |
| 20260904185946 | 36 | 141 | 4.8 | 4.8 | 0.00 | 0.00 | 0.00 | 49 | 1014.8 |
| 20260904185442 | 36 | 180 | 4.8 | 4.8 | 0.00 | 0.00 | 0.00 | 49 | 1014.7 |
| 20260904184937 | 36 | 207 | 3.2 | 3.2 | 0.00 | 0.00 | 0.00 | 47 | 1014.8 |
| 20260904184437 | 36 | 217 | 4.8 | 8.0 | 0.00 | 0.00 | 0.00 | 48 | 1014.8 |
| 20260904183932 | 36 | 142 | 1.6 | 3.2 | 0.00 | 0.00 | 0.00 | 48 | 1015.0 |
| 20260904183427 | 36 | 96 | 4.8 | 8.0 | 0.00 | 0.00 | 0.00 | 49 | 1015.1 |
| 20260904182923 | 36 | 207 | 1.6 | 1.6 | 0.00 | 0.00 | 0.00 | 48 | 1015.1 |
| 20260904182418 | 35 | 184 | 8.0 | 9.7 | 0.00 | 0.00 | 0.00 | 48 | 1015.1 |
| 20260904181913 | 35 | 175 | 4.8 | 4.8 | 0.00 | 0.00 | 0.00 | 48 | 1015.4 |
| 20260904181408 | 35 | 162 | 8.0 | 9.7 | 0.00 | 0.00 | 0.00 | 49 | 1015.3 |
| 20260904180903 | 35 | 190 | 6.4 | 9.7 | 0.00 | 0.00 | 0.00 | 51 | 1015.5 |
| 20260904180359 | 35 | 205 | 4.8 | 8.0 | 0.00 | 0.00 | 0.00 | 51 | 1015.4 |
| 20260904175858 | 35 | 97 | 3.2 | 3.2 | 0.00 | 0.00 | 0.00 | 51 | 1015.6 |
| 20260904175357 | 35 | 191 | 4.8 | 4.8 | 0.00 | 0.00 | 0.00 | 50 | 1015.6 |
| 20260904174856 | 35 | 199 | 1.6 | 3.2 | 0.00 | 0.00 | 0.00 | 52 | 1015.7 |
| 20260904174353 | 35 | 149 | 1.6 | 3.2 | 0.00 | 0.00 | 0.00 | 51 | 1015.8 |
| 20260904173848 | 35 | 104 | 4.8 | 4.8 | 0.00 | 0.00 | 0.00 | 51 | 1015.9 |
| 20260904173344 | 35 | 103 | 4.8 | 4.8 | 0.00 | 0.00 | 0.00 | 51 | 1015.7 |